[[{"header":{"parameterUnit":"m.s-1","parameterCategory":1,"la1":30.2991,"la2":30.254,"lo1":-89.0895,"lo2":-89.0444,"dx":0.0017,"dy":0.0017,"nx":28,"ny":28,"refTime":"2022-12-23T15:00:00:Z","depth":0,"parameterNumber":2,"parameterNumberName":"U-component_of_WINDS"},"data":[0,0,0,0,0,0,0,0,0,0,0,0,0,0,0,0,0,0,0,0,0,0,0,0,0,0,0,0,0,0,0,0,0,0,0,0,0,0,0,0,0,0,0,0,0,0,0,0,0,0,0,0,0,0,0,0,0,0,2.8695,2.8695,0,2.8706,2.8706,2.8706,2.8668,2.8666,2.8665,2.8664,2.8675,2.8676,2.8677,0,0,0,0,0,0,0,0,0,0,0,0,0,2.8641,2.8642,2.8695,2.8695,2.8695,2.8706,2.8706,2.8707,2.8668,2.8666,2.8665,2.8664,2.8674,2.8676,2.8677,0,0,0,0,0,0,0,0,0,0,0,0,0,2.866,2.8643,2.8695,2.8677,2.8676,2.8706,2.8706,2.8707,2.8668,2.8666,2.8665,2.8663,2.8674,2.8676,2.8678,2.8725,0,0,2.8684,2.8685,0,0,0,0,0,0,0,0,2.8659,2.8662,2.868,2.8679,2.8677,2.8684,2.8691,2.8713,2.8669,2.8671,2.8664,2.8662,2.8679,2.868,2.8686,2.8726,2.8726,2.8684,2.8685,2.8686,2.8687,0,0,0,0,0,0,0,2.8657,2.8661,2.8699,2.868,2.8679,2.8669,2.867,2.8695,2.8685,2.8671,2.8668,2.867,2.8678,2.8684,2.8686,2.8726,2.8684,2.8686,2.8687,2.8688,2.8806,2.8808,0,0,0,0,0,0,2.8658,2.866,2.8699,2.87,2.8663,2.8672,2.8672,2.8683,2.8684,2.8683,2.8671,2.8668,2.8682,2.8684,2.8686,2.8743,2.8686,2.8688,2.8689,2.8805,2.8807,2.8809,0,0,0,0,0,0,2.8657,2.8662,2.8699,2.8679,2.8683,2.8674,2.8687,2.8685,2.8691,2.8685,2.8683,2.868,2.8681,2.8684,2.8716,2.8742,2.8689,2.8691,2.8802,2.8805,2.8808,2.8855,0,0,0,0,0,0,2.8656,2.8662,2.868,2.868,2.8684,2.8728,2.8689,2.8686,2.8695,2.8691,2.8692,2.8691,2.8679,2.8713,2.8718,2.8744,2.8692,2.88,2.8804,2.8807,2.8851,2.8859,2.8866,0,0,0,0,0,2.8654,2.8692,2.8681,2.8686,2.8706,2.873,2.8732,2.8718,2.8697,2.8715,2.8711,2.8691,2.8739,2.8717,2.8722,2.8749,2.8798,2.8803,2.8807,2.8848,2.8858,2.8866,0,0,0,0,0,0,2.8694,2.8692,2.8679,2.8718,2.8725,2.8723,2.8745,2.8729,2.8741,2.8737,2.8719,2.872,2.8756,2.8756,2.8731,2.8796,2.8765,2.8771,2.8794,2.8804,2.8811,2.881,2.8694,0,0,0,0,0,2.8708,2.8727,2.8724,2.8759,2.8763,2.8754,2.8763,2.8752,2.8758,2.876,2.8759,2.8765,2.8782,2.8793,2.8808,2.8852,2.8852,2.8873,2.8881,2.8887,2.8892,2.8916,2.8925,2.8823,2.8823,2.8823,0,0,2.8735,2.8737,2.875,2.8767,2.877,2.8791,2.8756,2.8779,2.8794,2.8764,2.8794,2.8794,2.88,2.8839,2.8855,2.884,2.892,2.8892,2.8897,2.8899,2.8921,2.8931,2.8939,2.8826,2.8826,2.8825,0,0,2.8797,2.8799,2.8829,2.8834,2.884,2.8835,2.8842,2.8843,2.8842,2.8873,2.8851,2.8869,2.8898,2.8903,2.891,2.8976,2.8958,2.8982,2.902,2.9044,2.9052,2.9059,2.9083,2.9092,2.8986,2.8987,2.8987,0,2.883,2.886,2.8846,2.8871,2.888,2.8855,2.8885,2.889,2.8901,2.8908,2.889,2.8927,2.8929,2.8969,2.8986,2.8992,2.9,2.898,2.9052,2.9059,2.9065,2.9088,2.9097,2.8989,2.8989,2.8989,2.8988,0,2.8901,2.8923,2.8946,2.8958,2.897,2.8997,2.8988,2.9001,2.899,2.8986,2.9019,2.9021,2.9036,2.9046,2.9034,2.9085,2.9075,2.9055,2.9023,2.9078,2.9099,2.9107,2.8993,2.8992,2.8992,2.8991,0,0,2.8985,2.8992,2.9,2.9006,2.9013,2.9029,2.9056,2.9072,2.9084,2.9093,2.9115,2.9142,2.9124,2.9132,2.9121,2.9142,2.9195,2.912,2.912,2.9134,2.9251,2.9265,2.9275,2.9184,2.9185,2.9187,2.925,0,2.9045,2.9092,2.9081,2.9127,2.9147,2.9125,2.9149,2.9156,2.9154,2.9171,2.9168,2.9187,2.9162,2.9167,2.9187,2.9184,2.9218,2.918,2.9204,2.9205,2.9203,2.9286,2.9301,2.9361,2.9258,2.926,2.9261,0,2.9121,2.9134,2.9182,2.9187,2.9195,2.9217,2.9231,2.9248,2.9255,2.9252,2.9262,2.9249,2.9276,2.9245,2.9283,2.9257,2.9267,2.9267,2.9269,2.927,2.9236,2.9289,2.9379,2.9388,2.9273,2.9272,2.9271,0,2.9178,2.9207,2.924,2.9246,2.9252,2.9268,2.9272,2.9278,2.9289,2.9302,2.9308,2.9324,2.9333,2.9346,2.9337,2.9315,2.9376,2.9345,2.9375,2.9375,2.9387,2.9386,2.948,2.9395,2.9395,2.9395,2.9395,0,2.9245,2.9275,2.9266,2.9286,2.932,2.9308,2.9342,2.9343,2.9349,2.9369,2.9351,2.9371,2.9358,2.9377,2.937,2.9403,2.9407,2.9405,2.9403,2.9406,2.9407,2.9412,2.9407,2.9397,2.9397,2.9396,2.9396,0,2.9313,2.9308,2.9343,2.9347,2.9349,2.9373,2.9377,2.9396,2.9393,2.9419,2.9425,2.9421,2.9442,2.9435,2.9457,2.9453,2.9494,2.9487,2.9492,2.949,2.952,2.9517,2.962,2.9632,2.954,2.954,2.9541,0,2.9356,2.9379,2.9386,2.9399,2.9404,2.9424,2.9436,2.9426,2.9439,2.9451,2.9468,2.9488,2.9503,2.9538,2.9537,2.9555,2.9547,2.9582,2.955,2.9553,2.9548,2.9546,2.9549,2.9588,2.9589,2.959,2.9591,0,2.9433,2.943,2.9447,2.9465,2.9479,2.9492,2.9503,2.9514,2.9505,2.9521,2.9543,2.9555,2.9579,2.9598,2.9615,2.9618,2.9603,2.9602,2.9609,2.9613,2.9614,2.9614,2.9509,2.9599,2.9598,2.9597,2.9597,2.9597,2.949,2.951,2.9518,2.9539,2.9547,2.9558,2.9576,2.9577,2.9595,2.9614,2.9608,2.9633,2.9642,2.9662,2.9668,2.9688,2.9674,2.9686,2.9688,2.9691,2.9695,2.9612,2.9691,2.969,2.969,2.969,2.969,0,2.9565,2.9571,2.959,2.9607,2.9623,2.9609,2.9621,2.9636,2.9658,2.9668,2.9684,2.971,2.973,2.9731,2.975,2.9766,2.9759,2.9771,2.9769,2.977,2.9706,2.9697,2.9776,2.9776,2.9776,2.9776,2.9776,2.9776,2.9607,2.964,2.9638,2.9676,2.9681,2.9706,2.9714,2.9725,2.9733,2.9763,2.9779,2.9781,2.9787,2.9807,2.9825,2.9825,2.9832,2.9846,2.9844,2.9783,2.9775,2.9767,2.9758,2.9848,2.9848,2.9906,2.9907,2.9907]},{"header":{"parameterUnit":"m.s-1","parameterCategory":1,"la1":30.2991,"la2":30.254,"lo1":-89.0895,"lo2":-89.0444,"dx":0.0017,"dy":0.0017,"nx":28,"ny":28,"refTime":"2022-12-23T15:00:00:Z","depth":0,"parameterNumber":3,"parameterNumberName":"V-component_of_WINDS"},"data":[0,0,0,0,0,0,0,0,0,0,0,0,0,0,0,0,0,0,0,0,0,0,0,0,0,0,0,0,0,0,0,0,0,0,0,0,0,0,0,0,0,0,0,0,0,0,0,0,0,0,0,0,0,0,0,0,0,0,-10.8707,-10.871,0,-10.8959,-10.8962,-10.8965,-10.8884,-10.8879,-10.8874,-10.8868,-10.9119,-10.9131,-10.9142,0,0,0,0,0,0,0,0,0,0,0,0,0,-10.815,-10.8161,-10.8707,-10.871,-10.8713,-10.8959,-10.8962,-10.8966,-10.8885,-10.8879,-10.8872,-10.8866,-10.9116,-10.9129,-10.9143,0,0,0,0,0,0,0,0,0,0,0,0,0,-10.8396,-10.8164,-10.8706,-10.8703,-10.8705,-10.8958,-10.8962,-10.8966,-10.8887,-10.8879,-10.887,-10.8863,-10.9111,-10.9128,-10.9145,-10.9415,0,0,-10.9199,-10.9207,0,0,0,0,0,0,0,0,-10.8382,-10.8416,-10.87,-10.8704,-10.8706,-10.8882,-10.8858,-10.9116,-10.8889,-10.8818,-10.8868,-10.8859,-10.9047,-10.9069,-10.9134,-10.9426,-10.9437,-10.92,-10.9211,-10.9219,-10.9224,0,0,0,0,0,0,0,-10.8365,-10.8405,-10.8806,-10.8704,-10.8708,-10.8687,-10.8713,-10.8906,-10.8974,-10.8823,-10.8818,-10.8849,-10.9047,-10.9117,-10.9139,-10.9441,-10.92,-10.9216,-10.9226,-10.9233,-10.9968,-10.9977,0,0,0,0,0,0,-10.8347,-10.8392,-10.8798,-10.8814,-10.8521,-10.8703,-10.8733,-10.8834,-10.8972,-10.8985,-10.8856,-10.8844,-10.9091,-10.9119,-10.9147,-10.9473,-10.9218,-10.9235,-10.9245,-10.9959,-10.997,-10.998,0,0,0,0,0,0,-10.8335,-10.8384,-10.8788,-10.8602,-10.8651,-10.8722,-10.8836,-10.8843,-10.8913,-10.8996,-10.9007,-10.8916,-10.9086,-10.9123,-10.935,-10.948,-10.9243,-10.9259,-10.9949,-10.9962,-10.9975,-11.0125,0,0,0,0,0,0,-10.832,-10.838,-10.8485,-10.8605,-10.8662,-10.8989,-10.8844,-10.8854,-10.8945,-10.8932,-10.9055,-10.9068,-10.9082,-10.9324,-10.9367,-10.95,-10.9272,-10.9937,-10.9955,-10.9971,-11.0109,-11.0142,-11.017,0,0,0,0,0,-10.83,-10.8515,-10.8491,-10.854,-10.8794,-10.8996,-10.9029,-10.9043,-10.8955,-10.906,-10.9114,-10.9064,-10.9459,-10.9348,-10.9396,-10.9536,-10.9929,-10.995,-10.9969,-11.0095,-11.0135,-11.017,0,0,0,0,0,0,-10.8406,-10.8531,-10.8505,-10.8765,-10.8871,-10.8982,-10.9115,-10.9085,-10.9216,-10.9198,-10.9208,-10.9236,-10.947,-10.9525,-10.9399,-10.9804,-10.9681,-10.9712,-10.976,-10.9799,-10.9829,-10.9811,-10.9287,0,0,0,0,0,-10.846,-10.8616,-10.8715,-10.8936,-10.899,-10.9044,-10.9132,-10.9134,-10.9243,-10.9287,-10.9357,-10.9463,-10.9611,-10.9708,-10.9848,-11.0116,-11.0142,-11.0236,-11.0267,-11.0292,-11.0318,-11.0465,-11.0508,-11.0046,-11.0046,-11.0046,0,0,-10.8572,-10.866,-10.8757,-10.8959,-10.9041,-10.9201,-10.9082,-10.9255,-10.9374,-10.9312,-10.9532,-10.9587,-10.9706,-10.9955,-11.0068,-11.0008,-11.0452,-11.0318,-11.0337,-11.035,-11.049,-11.0534,-11.0573,-11.006,-11.0058,-11.0055,0,0,-10.8859,-10.8941,-10.9134,-10.922,-10.9347,-10.9382,-10.9428,-10.9545,-10.958,-10.9801,-10.9759,-10.9899,-11.0153,-11.024,-11.0317,-11.0639,-11.0598,-11.0684,-11.0846,-11.0988,-11.1025,-11.1057,-11.1172,-11.1213,-11.071,-11.0711,-11.0711,0,-10.8982,-10.9223,-10.9236,-10.9415,-10.9505,-10.946,-10.9655,-10.9737,-10.9902,-10.9965,-10.9896,-11.0216,-11.0293,-11.0562,-11.0641,-11.0705,-11.0757,-11.067,-11.1019,-11.1051,-11.1082,-11.1191,-11.1235,-11.0721,-11.0719,-11.0718,-11.0717,0,-10.9368,-10.9536,-10.9677,-10.9841,-10.9947,-11.0133,-11.0173,-11.0278,-11.0271,-11.0312,-11.0538,-11.0629,-11.0788,-11.0851,-11.0845,-11.1121,-11.108,-11.1015,-11.0891,-11.1135,-11.1239,-11.1281,-11.0734,-11.0731,-11.0728,-11.0726,0,0,-10.9728,-10.9899,-10.9951,-11.0025,-11.0163,-11.0292,-11.0476,-11.0634,-11.0724,-11.084,-11.0993,-11.1211,-11.1153,-11.1241,-11.1244,-11.1369,-11.1619,-11.1289,-11.1292,-11.1348,-11.1929,-11.1977,-11.2025,-11.1593,-11.1601,-11.1608,-11.1919,0,-11.0026,-11.0352,-11.037,-11.0664,-11.082,-11.078,-11.094,-11.1041,-11.1085,-11.1221,-11.1268,-11.1423,-11.1334,-11.1387,-11.1509,-11.1563,-11.1736,-11.1541,-11.1735,-11.1742,-11.1707,-11.2079,-11.213,-11.2419,-11.1959,-11.1966,-11.1971,0,-11.0418,-11.055,-11.0861,-11.0978,-11.1044,-11.1188,-11.1335,-11.1466,-11.1579,-11.1602,-11.1702,-11.1688,-11.1874,-11.1745,-11.2001,-11.1868,-11.1949,-11.1987,-11.1999,-11.2017,-11.1871,-11.2108,-11.2512,-11.2556,-11.2035,-11.203,-11.2025,0,-11.065,-11.0904,-11.1124,-11.1189,-11.1331,-11.1433,-11.1496,-11.1602,-11.1697,-11.1824,-11.1886,-11.2032,-11.2113,-11.2226,-11.2251,-11.2154,-11.2508,-11.238,-11.2531,-11.2531,-11.2607,-11.2602,-11.303,-11.2659,-11.2659,-11.2658,-11.2657,0,-11.0982,-11.1173,-11.123,-11.1365,-11.1579,-11.1597,-11.1807,-11.1863,-11.1959,-11.2102,-11.2076,-11.2211,-11.2236,-11.2376,-11.2397,-11.2607,-11.2643,-11.2665,-11.2669,-11.2669,-11.2666,-11.2721,-11.2702,-11.2669,-11.2667,-11.2665,-11.2663,0,-11.1276,-11.1322,-11.1559,-11.1675,-11.1709,-11.1861,-11.196,-11.2089,-11.213,-11.2312,-11.2356,-11.242,-11.2584,-11.2621,-11.2814,-11.2828,-11.3077,-11.306,-11.304,-11.3039,-11.3188,-11.3174,-11.3667,-11.3732,-11.3318,-11.3322,-11.3325,0,-11.1485,-11.1633,-11.1766,-11.1862,-11.1931,-11.2085,-11.2183,-11.2206,-11.2308,-11.245,-11.2561,-11.2723,-11.2853,-11.3117,-11.3179,-11.3327,-11.3314,-11.3477,-11.3336,-11.3331,-11.3317,-11.3308,-11.3323,-11.3503,-11.3508,-11.3511,-11.3514,0,-11.1851,-11.1867,-11.201,-11.2162,-11.2279,-11.2398,-11.2512,-11.2591,-11.263,-11.2746,-11.2915,-11.3017,-11.3216,-11.3377,-11.3526,-11.3588,-11.3559,-11.3558,-11.3601,-11.3602,-11.3585,-11.3597,-11.3114,-11.3547,-11.3543,-11.3541,-11.3539,-11.3538,-11.211,-11.224,-11.2355,-11.2514,-11.2603,-11.2711,-11.2838,-11.2896,-11.3039,-11.3205,-11.3209,-11.3394,-11.3503,-11.3701,-11.3773,-11.3917,-11.3866,-11.3928,-11.3944,-11.3959,-11.3973,-11.3563,-11.3943,-11.3943,-11.3942,-11.3941,-11.394,0,-11.2475,-11.2548,-11.2695,-11.2857,-11.2982,-11.2946,-11.307,-11.3177,-11.3341,-11.3447,-11.3577,-11.3771,-11.3927,-11.4003,-11.4157,-11.4257,-11.4247,-11.4297,-11.4289,-11.4305,-11.4009,-11.3957,-11.4302,-11.4302,-11.4302,-11.4302,-11.4302,-11.4302,-11.268,-11.2898,-11.2928,-11.3189,-11.3259,-11.3442,-11.3516,-11.3615,-11.37,-11.392,-11.4051,-11.41,-11.4194,-11.4355,-11.4496,-11.4514,-11.4571,-11.4628,-11.464,-11.4362,-11.4325,-11.429,-11.4241,-11.4641,-11.4641,-11.4923,-11.4926,-11.4928]}]]